Weather observations for the past three days for
Greenville
Imperial (Metric)
Date Time (edt) Wind (mph) Vis. (mi.) Weather Sky Cond. Temperature (ºF) Relative Humidity Wind Chill (°F) Heat Index (°F) Pressure Precipitation (in)
Air Dwpt 6 hour altimeter (in) sea level (mb) 1 hr 3 hr 6 hr
Max. Min.
15 23:56 NW 6 0.00 NULL NULL 48.9 39 69% 47 30.1 1019.6
15 22:56 N 9 0.00 NULL NULL 52 39.9 64% 30.08 1018.9
15 21:56 NW 8 0.00 NULL NULL 53.1 41 64% 30.05 1018.2
15 20:56 NW 9 G 18 0.00 NULL NULL 55 41 59% 30.02 1017.0
15 19:56 NW 9 0.00 NULL NULL 55.9 41 62.1 55.9 57% 30 1016.3
15 18:56 NW 10 G 23 0.00 NULL NULL 60.1 41 50% 29.99 1015.9
15 17:56 NW 14 G 25 0.00 NULL NULL 60.1 39.9 48% 29.98 1015.5
15 16:56 NW 16 G 25 0.00 NULL NULL 61 39.9 46% 29.96 1014.7
15 15:56 NW 12 G 23 0.00 NULL NULL 62.1 42.1 48% 29.95 1014.4
15 14:56 NW 12 G 22 0.00 NULL NULL 61 46 58% 29.95 1014.4
15 13:56 N 15 G 30 0.00 NULL NULL 60.1 44.1 61 53.1 56% 29.95 1014.2
15 12:56 N 13 G 25 0.00 NULL NULL 57.9 45 62% 29.96 1014.7
15 11:56 NW 14 G 25 0.00 NULL NULL 60.1 48 65% 29.94 1014.1
15 10:56 NW 16 G 26 0.00 NULL NULL 57.9 48 70% 29.94 1013.9
15 09:56 NW 9 G 21 0.00 NULL NULL 55 46.9 74% 29.93 1013.7
15 08:56 NW 14 G 23 0.00 NULL NULL 54 46.9 77% 29.94 1014.0
15 07:56 NW 17 G 26 0.00 NULL NULL 54 46.9 59 52 77% 29.93 1013.6
15 06:56 N 5 0.00 NULL NULL 53.1 46.9 80% 29.91 1012.9
15 05:56 N 7 0.00 NULL NULL 53.1 46.9 80% 29.91 1012.6
15 04:56 NW 6 0.00 NULL NULL 54 48.9 83% 29.88 1011.7
15 03:56 NW 7 0.00 NULL NULL 55 51.1 87% 29.87 1011.3
15 02:56 NW 6 0.00 NULL NULL 55.9 50 81% 29.87 1011.4
15 01:56 NW 9 0.00 NULL NULL 59 50 66 59 72% 29.88 1011.8
15 00:56 NW 8 G 16 0.00 NULL NULL 60.1 51.1 72% 29.88 1011.4
14 23:56 NW 6 0.00 NULL NULL 61 54 78% 29.88 1011.7
14 22:56 NW 10 0.00 NULL NULL 63 55 76% 29.87 1011.3
14 21:56 NW 5 0.00 NULL NULL 64 55 73% 29.85 1010.7
14 20:56 N 9 0.00 NULL NULL 64.9 54 68% 29.82 1009.7
14 19:56 N 5 0.00 NULL NULL 66 55.9 73.9 61 70% 29.81 1009.1 0.03
14 18:56 NW 7 0.00 NULL NULL 70 55.9 61% 29.79 1008.6
14 17:56 NW 6 0.00 NULL NULL 73.9 59 60% 29.78 1008.0
14 16:56 Vrbl 3 0.00 NULL NULL 72 64.9 79% 29.76 1007.4 0.03
14 15:56 Vrbl 6 0.00 NULL NULL 72 64 76% 29.76 1007.5
14 14:56 Calm 0.00 NULL NULL 68 62.1 81% 29.76 1007.6 0.03
14 13:56 Vrbl 3 0.00 NULL NULL 61 59 75 60.1 93% 29.76 1007.8 0.27 0.27
14 12:56 S 9 0.00 NULL NULL 73.9 63 69% 29.76 1007.2
14 11:56 Vrbl 3 0.00 NULL NULL 68 63 84% 29.78 1008.2
14 10:56 Calm 0.00 NULL NULL 64 60.1 87% 29.81 1009.0
14 09:56 Calm 0.00 NULL NULL 62.1 60.1 93% 29.79 1008.6
14 08:56 SE 5 0.00 NULL NULL 62.1 57.9 86% 29.78 1008.0
14 07:56 SE 5 0.00 NULL NULL 61 57 63 60.1 87% 29.76 1007.6
14 06:56 SE 6 0.00 NULL NULL 60.1 55.9 86% 29.76 1007.4
14 05:56 SE 5 0.00 NULL NULL 60.1 55 84% 29.76 1007.5
14 04:56 Calm 0.00 NULL NULL 62.1 55 78% 29.76 1007.4
14 03:56 Vrbl 5 0.00 NULL NULL 60.1 54 80% 29.75 1007.2
14 02:56 SE 6 0.00 NULL NULL 60.1 54 80% 29.77 1007.8
14 01:56 Vrbl 3 0.00 NULL NULL 61 54 69.1 61 78% 29.8 1008.9
14 00:56 SE 5 0.00 NULL NULL 63 55 76% 29.81 1009.1
13 23:56 SE 6 0.00 NULL NULL 64 55.9 75% 29.83 1009.9
13 22:56 SE 3 0.00 NULL NULL 64.9 57 76% 29.84 1010.3
13 21:56 SE 7 0.00 NULL NULL 66 57 73% 29.86 1011.0
13 20:56 SE 5 0.00 NULL NULL 66.9 55.9 68% 29.87 1011.1
13 19:56 Vrbl 3 0.00 NULL NULL 69.1 55.9 75 69.1 63% 29.88 1011.5
13 18:56 Calm 0.00 NULL NULL 71.1 55.9 59% 29.87 1011.2
13 17:56 Vrbl 5 0.00 NULL NULL 73 55 53% 29.87 1011.5
13 16:56 Calm 0.00 NULL NULL 73.9 53.1 48% 29.88 1011.5
13 15:56 Vrbl 6 0.00 NULL NULL 73.9 54 50% 29.89 1011.9
13 14:56 Vrbl 6 0.00 NULL NULL 73 53.1 50% 29.91 1012.7
13 13:56 Vrbl 6 0.00 NULL NULL 73 52 73 61 48% 29.92 1013.1
13 12:56 Calm 0.00 NULL NULL 72 53.1 52% 29.94 1013.8
13 11:56 Vrbl 3 0.00 NULL NULL 68 51.1 55% 29.95 1014.2
13 10:56 Vrbl 5 0.00 NULL NULL 66.9 53.1 61% 29.96 1014.7
13 09:56 Vrbl 5 0.00 NULL NULL 63 53.1 70% 29.96 1014.7
13 08:56 Calm 0.00 NULL NULL 63 55 76% 29.97 1014.7
13 07:56 Calm 0.00 NULL NULL 61 53.1 62.1 52 75% 29.96 1014.7
13 06:56 Calm 0.00 NULL NULL 59 54 83% 29.95 1014.4
13 05:56 Calm 0.00 NULL NULL 55 51.1 87% 29.95 1014.5
13 04:56 NW 5 0.00 NULL NULL 55 51.1 87% 29.93 1013.7
13 03:56 Calm 0.00 NULL NULL 54 51.1 90% 29.92 1013.2
13 02:56 Calm 0.00 NULL NULL 53.1 51.1 93% 29.93 1013.5
13 01:56 Calm 0.00 NULL NULL 55 52 62.1 54 90% 29.93 1013.8
13 00:56 Calm 0.00 NULL NULL 55.9 53.1 90% 29.94 1013.9
Date Time (edt) Wind (mph) Vis. (mi.) Weather Sky Cond. Air Dwpt Max. Min. Relative Humidity Wind Chill (°F) Heat Index (°F) altimeter (in) sea level (mb) 1 hr 3 hr 6 hr
6 hour
Temperature (ºF) Pressure Precipitation (in)